#timestamp,LO_Frequency,Hit,StdDev 
1683853215.6,286046998.5,N
1683853235.5,286046998.8,N
1683853255.3,286047000.8,N
1683853275.1,286046998.5,N
1683853295.9,286046998.1,N
1683853315.7,286047001.2,N
1683853335.5,286047000.5,N
1683853355.4,286047000.9,N
1683853375.2,286047000.6,N
1683853395.1,286047000.5,N
1683853396.0,286047000.5,N
1683853415.8,286047000.8,N
1683853435.6,286046999.4,N
1683853455.5,286046999.2,N
1683853475.3,286046999.3,N
1683853495.1,286046999.2,N
1683853515.9,286046999.4,N
1683853535.7,286046999.6,N
1683853555.5,286046998.3,N
1683853575.4,286046998.8,N
1683853595.2,286046998.6,N
1683853615.1,286047001.1,N
1683853616.0,286047001.1,N
1683853635.8,286046998.2,N
1683853655.6,286046999.1,N
1683853675.5,286046999.1,N
1683853695.3,286046996.6,N
1683853715.1,286046999.3,N
1683853735.9,286046999.1,N
1683853755.7,286046996.6,Y
1683853775.6,286046998.6,P
1683853795.4,286046998.6,P
1683853815.2,286047001.2,N
1683853835.1,286046998.1,N
1683853836.0,286046998.1,N
1683853855.8,286046998.7,N
1683853875.6,286046999.0,N
1683853895.5,286046999.5,N
1683853915.3,286046996.6,Y
1683853935.2,286046999.4,P
1683853955.9,286046996.5,P
1683853975.7,286046999.5,N
1683853995.6,286046999.6,N
1683854015.4,286046996.6,N
1683854035.2,286046996.9,N
1683854055.1,286046997.0,N
1683854056.0,286046997.0,N
1683854075.8,286046997.2,N
1683854095.7,286046995.4,Y
1683854115.5,286046999.2,P
1683854135.3,286046997.2,P
1683854155.2,286046997.3,P
1683854175.0,286046997.8,N
1683854175.9,286046997.8,Y
1683854195.7,286046996.6,P
1683854215.6,286046999.2,N
1683854235.4,286046997.0,N
1683854255.3,286046999.4,N
1683854275.1,286046996.5,Y
1683854276.0,286046996.5,P
1683854295.8,286046998.4,N
1683854315.7,286046998.4,N
1683854335.5,286046999.1,N
1683854355.3,286046998.8,N
1683854375.2,286047000.8,N
1683854395.0,286047001.1,N
1683854395.9,286047001.1,N
1683854415.8,286046999.0,N
1683854435.6,286046998.3,N
1683854455.4,286047000.9,N
1683854475.3,286047000.3,N
1683854495.1,286047001.1,N
1683854515.8,286046998.2,N
1683854535.7,286047001.2,N
1683854555.5,286047000.7,N
1683854575.4,286047001.1,N
1683854595.2,286047001.1,N
1683854615.0,286046998.2,N
1683854615.9,286046998.2,N
1683854635.8,286047001.2,N
1683854655.6,286047000.6,N
1683854675.4,286047000.9,N
1683854695.3,286047000.6,N
1683854715.1,286046998.2,N
1683854735.9,286046998.7,N
1683854755.7,286046999.3,N
1683854775.5,286046999.5,N
1683854795.4,286046999.1,N
1683854815.2,286046998.8,N
1683854835.0,286046998.1,N
1683854835.9,286046998.1,N
1683854855.8,286047000.6,N
1683854875.6,286047000.4,N
1683854895.5,286047001.0,N
1683854915.3,286047000.3,N
1683854935.1,286046999.9,N
1683854955.9,286046998.4,N
1683854975.7,286047001.1,N
1683854995.5,286047000.6,N
1683855015.4,286047000.7,N
1683855035.2,286046998.1,N
1683855055.1,286046999.9,N
1683855056.0,286046999.9,N
1683855075.8,286047000.9,N
1683855095.6,286047000.9,N
1683855115.5,286047001.0,N
1683855135.3,286046999.9,N
1683855155.1,286047000.0,N
1683855175.9,286047002.7,N
1683855195.7,286047002.5,N
1683855215.6,286046999.8,N
1683855235.4,286046999.7,N
1683855255.2,286047002.7,N
1683855275.1,286047002.3,N
1683855276.0,286047002.3,N
1683855295.8,286047002.5,N
1683855315.6,286047000.3,N
1683855335.5,286047000.0,N
1683855355.3,286047000.3,N
1683855375.2,286047000.9,N
1683855395.9,286047000.6,N
1683855415.7,286046999.9,N
1683855435.6,286047002.4,N
1683855455.4,286047002.5,N
1683855475.2,286047002.0,N
1683855495.1,286047001.4,N
1683855496.0,286047001.4,N
1683855515.8,286047002.6,N
1683855535.7,286047002.0,N
1683855555.5,286047002.5,N
1683855575.3,286047004.4,Y
1683855595.2,286047002.1,P
1683855615.0,286046999.9,N
1683855615.9,286046999.9,N
1683855635.8,286047002.8,N
1683855655.6,286047002.1,N
1683855675.4,286047000.2,N
1683855695.3,286046999.7,N
1683855715.1,286047002.5,N
1683855735.8,286047001.5,N
1683855755.7,286047002.4,N
1683855775.5,286047000.2,N
1683855795.3,286047000.2,N
1683855815.2,286046999.8,N
1683855835.0,286047000.8,N
1683855835.9,286047000.8,N
1683855855.8,286046999.8,N
1683855875.6,286047002.1,N
1683855895.4,286047001.8,N
1683855915.3,286047002.7,N
1683855935.1,286047001.5,N
1683855955.8,286047004.3,Y
1683855975.7,286047002.6,P
1683855995.5,286047002.3,P
1683856015.4,286046999.9,N
1683856035.2,286046999.8,N
1683856055.0,286047000.2,N
1683856055.9,286047000.2,N
1683856075.8,286046999.9,N
1683856095.6,286047000.9,N
1683856115.4,286047000.6,N
1683856135.3,286047000.0,N
1683856155.1,286047002.6,N
1683856175.9,286047002.7,N
1683856195.7,286047002.4,N
1683856215.5,286047004.4,Y
1683856235.4,286047001.4,P
1683856255.2,286047002.6,P
1683856275.0,286047000.3,N
1683856275.9,286047000.3,N
1683856295.8,286047002.5,N
1683856315.6,286047002.7,N
1683856335.5,286047002.3,N
1683856355.3,286046999.8,N
1683856375.1,286047000.0,N
1683856395.9,286047000.1,N
1683856415.7,286046999.7,N
1683856435.5,286047002.4,N
1683856455.4,286046999.8,N
1683856475.2,286047000.1,N
1683856495.0,286047000.3,N
1683856496.0,286047000.3,N
1683856515.8,286047000.0,N
1683856535.6,286047000.1,N
1683856555.5,286047000.6,N
1683856575.3,286047001.0,N
1683856595.1,286047000.9,N
1683856615.9,286047001.1,N
1683856635.7,286047000.0,N
1683856655.5,286046999.9,N
1683856675.4,286046999.9,N
1683856695.2,286046999.9,N
1683856715.1,286047000.5,N
1683856716.0,286047000.5,N
1683856735.8,286047001.2,N
1683856755.6,286046998.3,N
1683856775.5,286046998.9,N
1683856795.3,286046997.1,N
